Location: Gibsondale
(40.9931°N, 80.2478°W)
Time: 09:23:27
(UTC+00:00)

USA 308 - Pass Details

Date: 29 October 2020
Orbit: 571 x 578 km, 54.0° (Epoch: 23 November)

Event Time Altitude Azimuth Distance (km) Brightness Sun altitude
Rises 23:31:55 0° 313° (NW) 2,786 7.0 -14.1°
Reaches altitude 10° 23:34:17 10° 321° (NW) 1,884 6.0 -14.6°
Maximum altitude 23:38:20 40° 32° (NNE) 858 3.5 -15.3°
Enters shadow 23:39:53 29° 78° (ENE) 1,071 3.7 -15.6°
